| time (UTC) | temp F | wind direction | speed MPH | gust MPH | rain 1hr in | rain 24hr in | rain mn in | humidity % | barometer mb |
| 20260508194540 | 70 | 97 | 5.0 | 9.0 | 0.00 | 0.02 | 0.02 | 95 | 1011.1 |
| 20260508193033 | 70 | 80 | 4.0 | 8.0 | 0.00 | 0.02 | 0.02 | 96 | 1011.3 |
| 20260508191536 | 69 | 86 | 4.0 | 9.0 | 0.00 | 0.02 | 0.02 | 96 | 1011.9 |
| 20260508190028 | 69 | 59 | 5.0 | 10.0 | 0.00 | 0.02 | 0.02 | 96 | 1011.9 |
| 20260508184528 | 69 | 77 | 3.0 | 7.0 | 0.00 | 0.02 | 0.02 | 95 | 1012.3 |
| 20260508183032 | 69 | 44 | 3.0 | 10.0 | 0.01 | 0.02 | 0.02 | 95 | 1012.2 |
| 20260508181525 | 69 | 55 | 4.0 | 9.0 | 0.01 | 0.02 | 0.02 | 96 | 1012.0 |
| 20260508180026 | 68 | 57 | 4.0 | 9.0 | 0.01 | 0.02 | 0.02 | 96 | 1012.1 |
| 20260508174522 | 68 | 74 | 4.0 | 9.0 | 0.01 | 0.02 | 0.02 | 96 | 1012.2 |
| 20260508173020 | 68 | 85 | 6.0 | 9.0 | 0.01 | 0.01 | 0.01 | 96 | 1012.4 |
| 20260508171518 | 68 | 90 | 3.0 | 6.0 | 0.01 | 0.01 | 0.01 | 96 | 1012.8 |
| 20260508170019 | 68 | 80 | 4.0 | 9.0 | 0.01 | 0.01 | 0.01 | 96 | 1013.0 |
| 20260508164516 | 68 | 51 | 3.0 | 6.0 | 0.01 | 0.01 | 0.01 | 95 | 1013.2 |
| 20260508163027 | 67 | 53 | 4.0 | 8.0 | 0.00 | 0.00 | 0.00 | 94 | 1013.5 |
| 20260508161514 | 68 | 50 | 3.0 | 6.0 | 0.00 | 0.00 | 0.00 | 94 | 1013.9 |
| 20260508160020 | 68 | 67 | 3.0 | 10.0 | 0.00 | 0.00 | 0.00 | 93 | 1013.7 |
| 20260508154516 | 67 | 52 | 4.0 | 8.0 | 0.00 | 0.00 | 0.00 | 93 | 1013.2 |
| 20260508153011 | 67 | 79 | 4.0 | 10.0 | 0.00 | 0.00 | 0.00 | 93 | 1013.0 |
| 20260508151512 | 67 | 10 | 2.0 | 8.0 | 0.00 | 0.00 | 0.00 | 94 | 1013.4 |
| 20260508150030 | 66 | 68 | 3.0 | 8.0 | 0.00 | 0.00 | 0.00 | 94 | 1013.2 |
| 20260508144510 | 66 | 312 | 2.0 | 6.0 | 0.00 | 0.00 | 0.00 | 94 | 1013.6 |
| 20260508143011 | 66 | 53 | 1.0 | 5.0 | 0.00 | 0.00 | 0.00 | 94 | 1013.5 |
| 20260508141508 | 66 | 80 | 0.0 | 6.0 | 0.00 | 0.00 | 0.00 | 94 | 1013.6 |
| 20260508140013 | 66 | 82 | 3.0 | 6.0 | 0.00 | 0.00 | 0.00 | 93 | 1013.6 |
| 20260508134507 | 66 | 82 | 2.0 | 4.0 | 0.00 | 0.00 | 0.00 | 93 | 1013.8 |
| 20260508133009 | 66 | 23 | 1.0 | 6.0 | 0.00 | 0.00 | 0.00 | 92 | 1013.9 |
| 20260508131506 | 66 | 88 | 3.0 | 7.0 | 0.00 | 0.00 | 0.00 | 92 | 1013.5 |
| 20260508130005 | 66 | 5 | 3.0 | 8.0 | 0.00 | 0.00 | 0.00 | 91 | 1013.7 |
| 20260508124506 | 66 | 19 | 2.0 | 9.0 | 0.00 | 0.00 | 0.00 | 91 | 1013.7 |
| 20260508123004 | 66 | 51 | 1.0 | 4.0 | 0.00 | 0.00 | 0.00 | 91 | 1013.6 |
| 20260508121503 | 66 | 91 | 2.0 | 6.0 | 0.00 | 0.00 | 0.00 | 90 | 1013.3 |
| 20260508120003 | 66 | 57 | 3.0 | 5.0 | 0.00 | 0.00 | 0.00 | 89 | 1013.7 |
| 20260508114503 | 66 | 26 | 3.0 | 5.0 | 0.00 | 0.00 | 0.00 | 89 | 1014.0 |
| 20260508113004 | 66 | 302 | 2.0 | 6.0 | 0.00 | 0.00 | 0.00 | 89 | 1014.1 |
| 20260508111503 | 66 | 332 | 2.0 | 8.0 | 0.00 | 0.00 | 0.00 | 89 | 1014.0 |
| 20260508110111 | 66 | 14 | 1.0 | 8.0 | 0.00 | 0.00 | 0.00 | 89 | 1013.9 |
| 20260508104613 | 66 | 330 | 1.0 | 7.0 | 0.00 | 0.00 | 0.00 | 89 | 1013.8 |
| 20260508103103 | 65 | 71 | 2.0 | 5.0 | 0.00 | 0.00 | 0.00 | 88 | 1013.5 |
| 20260508101558 | 65 | 306 | 1.0 | 5.0 | 0.00 | 0.00 | 0.00 | 88 | 1013.9 |
| 20260508100058 | 65 | 42 | 3.0 | 8.0 | 0.00 | 0.00 | 0.00 | 88 | 1013.4 |
| 20260508094556 | 65 | 84 | 3.0 | 6.0 | 0.00 | 0.00 | 0.00 | 87 | 1013.4 |
| 20260508093056 | 65 | 18 | 4.0 | 11.0 | 0.00 | 0.00 | 0.00 | 86 | 1013.7 |
| 20260508091608 | 66 | 5 | 2.0 | 8.0 | 0.00 | 0.00 | 0.00 | 86 | 1013.9 |
| 20260508090055 | 66 | 39 | 1.0 | 4.0 | 0.00 | 0.00 | 0.00 | 86 | 1013.1 |
| 20260508084602 | 66 | 15 | 2.0 | 6.0 | 0.00 | 0.00 | 0.00 | 86 | 1013.1 |
| 20260508083058 | 66 | 360 | 2.0 | 6.0 | 0.00 | 0.00 | 0.00 | 86 | 1013.6 |
| 20260508081551 | 66 | 343 | 2.0 | 6.0 | 0.00 | 0.00 | 0.00 | 85 | 1013.4 |
| 20260508074547 | 66 | 350 | 2.0 | 5.0 | 0.00 | 0.00 | 0.00 | 85 | 1013.8 |
| 20260508073054 | 66 | 336 | 2.0 | 6.0 | 0.00 | 0.00 | 0.00 | 85 | 1014.2 |
| 20260508071545 | 66 | 5 | 3.0 | 7.0 | 0.00 | 0.00 | 0.00 | 85 | 1014.3 |
| 20260508070044 | 66 | 21 | 3.0 | 5.0 | 0.00 | 0.00 | 0.00 | 85 | 1014.4 |
| 20260508064547 | 67 | 355 | 3.0 | 8.0 | 0.00 | 0.00 | 0.00 | 85 | 1014.3 |
| 20260508063043 | 67 | 22 | 2.0 | 5.0 | 0.00 | 0.00 | 0.00 | 85 | 1014.4 |
| 20260508061542 | 67 | 355 | 1.0 | 4.0 | 0.00 | 0.00 | 0.00 | 85 | 1014.4 |
| 20260508060039 | 67 | 46 | 1.0 | 4.0 | 0.00 | 0.00 | 0.00 | 85 | 1014.0 |
| 20260508054545 | 66 | 28 | 2.0 | 5.0 | 0.00 | 0.00 | 0.00 | 85 | 1013.6 |
| 20260508053032 | 66 | 351 | 1.0 | 4.0 | 0.00 | 0.00 | 0.00 | 84 | 1014.2 |
| 20260508051537 | 66 | 348 | 1.0 | 6.0 | 0.00 | 0.00 | 0.00 | 84 | 1014.3 |
| 20260508050033 | 66 | 350 | 2.0 | 6.0 | 0.00 | 0.00 | 0.00 | 84 | 1014.4 |
| 20260508044528 | 66 | 355 | 2.0 | 6.0 | 0.00 | 0.00 | 0.00 | 84 | 1014.5 |
| 20260508043027 | 66 | 322 | 2.0 | 8.0 | 0.00 | 0.00 | 0.00 | 84 | 1014.4 |
| 20260508041527 | 66 | 360 | 2.0 | 6.0 | 0.00 | 0.00 | 0.00 | 84 | 1014.5 |
| 20260508040040 | 66 | 39 | 2.0 | 6.0 | 0.00 | 0.00 | 0.00 | 84 | 1014.3 |
| 20260508034538 | 66 | 34 | 1.0 | 6.0 | 0.00 | 0.00 | 0.00 | 84 | 1014.1 |
| 20260508033021 | 67 | 40 | 1.0 | 5.0 | 0.00 | 0.00 | 0.00 | 83 | 1013.9 |
| 20260508031522 | 66 | 22 | 3.0 | 11.0 | 0.00 | 0.00 | 0.00 | 82 | 1013.5 |
| 20260508030055 | 67 | 77 | 6.0 | 9.0 | 0.00 | 0.00 | 0.00 | 81 | 1013.6 |
| 20260508024551 | 67 | 55 | 3.0 | 6.0 | 0.00 | 0.00 | 0.00 | 81 | 1014.6 |
| 20260508023051 | 68 | 346 | 1.0 | 6.0 | 0.00 | 0.00 | 0.00 | 81 | 1014.6 |
| 20260508021551 | 68 | 39 | 1.0 | 6.0 | 0.00 | 0.00 | 0.00 | 80 | 1014.5 |
| 20260508020055 | 68 | 336 | 2.0 | 9.0 | 0.00 | 0.00 | 0.00 | 79 | 1014.9 |
| 20260508014550 | 69 | 321 | 2.0 | 9.0 | 0.00 | 0.00 | 0.00 | 78 | 1014.5 |
| 20260508013049 | 70 | 13 | 2.0 | 9.0 | 0.00 | 0.00 | 0.00 | 78 | 1014.3 |
| 20260508011549 | 71 | 309 | 3.0 | 10.0 | 0.00 | 0.00 | 0.00 | 77 | 1014.5 |
| 20260508010048 | 72 | 61 | 2.0 | 9.0 | 0.00 | 0.00 | 0.00 | 76 | 1014.2 |
| 20260508004551 | 72 | 49 | 4.0 | 9.0 | 0.00 | 0.00 | 0.00 | 76 | 1014.4 |
| 20260508003050 | 73 | 67 | 2.0 | 9.0 | 0.00 | 0.00 | 0.00 | 75 | 1014.5 |
| 20260508001546 | 73 | 26 | 3.0 | 10.0 | 0.00 | 0.00 | 0.00 | 77 | 1014.3 |
| 20260508000047 | 74 | 315 | 2.0 | 10.0 | 0.00 | 0.00 | 0.00 | 76 | 1014.6 |
| 20260507234553 | 74 | 347 | 4.0 | 11.0 | 0.00 | 0.00 | 0.00 | 76 | 1014.5 |
| 20260507233108 | 75 | 36 | 3.0 | 9.0 | 0.00 | 0.00 | 0.00 | 76 | 1014.5 |
| 20260507231546 | 75 | 5 | 3.0 | 10.0 | 0.00 | 0.00 | 0.00 | 76 | 1014.5 |
| 20260507230047 | 76 | 65 | 2.0 | 12.0 | 0.00 | 0.00 | 0.00 | 76 | 1014.6 |
| 20260507224544 | 76 | 9 | 3.0 | 11.0 | 0.00 | 0.00 | 0.00 | 76 | 1014.3 |
| 20260507223055 | 76 | 50 | 5.0 | 13.0 | 0.00 | 0.00 | 0.00 | 75 | 1014.1 |
| 20260507221543 | 76 | 355 | 3.0 | 11.0 | 0.00 | 0.00 | 0.00 | 76 | 1014.0 |
| 20260507220040 | 76 | 29 | 4.0 | 10.0 | 0.00 | 0.00 | 0.00 | 75 | 1013.9 |
| 20260507214539 | 76 | 57 | 6.0 | 14.0 | 0.00 | 0.00 | 0.00 | 75 | 1013.9 |
| 20260507213036 | 76 | 83 | 5.0 | 12.0 | 0.00 | 0.00 | 0.00 | 75 | 1014.2 |
| 20260507211545 | 76 | 55 | 6.0 | 12.0 | 0.00 | 0.00 | 0.00 | 75 | 1014.4 |
| 20260507210040 | 75 | 360 | 3.0 | 9.0 | 0.00 | 0.00 | 0.00 | 77 | 1014.8 |
| 20260507204536 | 75 | 51 | 6.0 | 12.0 | 0.00 | 0.00 | 0.00 | 76 | 1015.0 |
| 20260507203030 | 74 | 72 | 4.0 | 11.0 | 0.00 | 0.00 | 0.00 | 76 | 1014.9 |
| 20260507201526 | 73 | 44 | 3.0 | 11.0 | 0.00 | 0.00 | 0.00 | 78 | 1015.0 |
| 20260507200025 | 73 | 339 | 4.0 | 12.0 | 0.00 | 0.00 | 0.00 | 76 | 1015.2 |